SCP
5 5 6 7 8 10 12 11 9 8 8 7 6 6 5 4 4 4 5 6 6 6 6 5 5 5 5 5 4 3 2 2 1 1 1 1 1 2 2 2 1 1 1
7 8 8 8 9 11 12 11 9 8 8 7 7 6 5 5 4 4 4 5 6 6 5 5 5 5 5 5 5 4 3 2 2 1 1 1 1 1 2 2 1 1 1
11 12 11 11 11 12 12 12 10 9 8 8 8 7 6 5 4 4 4 5 5 5 5 5 5 5 5 5 5 4 3 2 2 2 1 1 1 1 1 1 1 2 2
15 15 15 15 14 13 12 13 11 9 9 8 8 7 6 5 5 5 5 5 5 5 5 5 5 5 5 5 4 3 3 2 2 1 1 1 1 1 1 1 1 2 2
17 17 17 17 16 14 13 13 12 10 9 9 8 7 6 5 5 5 6 6 5 5 5 5 5 6 5 4 3 2 2 2 1 1 1 1 1 1 1 1 1 1 1
18 17 15 15 15 14 14 12 11 11 10 9 8 8 7 6 6 6 6 6 6 5 5 4 5 5 5 4 3 2 2 2 2 2 2 1 1 2 2 1 1 1 1
14 13 12 11 12 12 12 12 11 11 10 9 9 8 8 7 7 7 7 7 7 6 4 4 4 4 3 3 2 2 2 2 2 2 1 1 1 2 2 1 1 1 1
9 9 8 8 9 9 9 9 10 10 10 9 9 9 8 7 7 7 8 7 6 5 4 3 3 3 2 2 2 2 2 1 1 1 1 1 1 2 1 1 1 1 1
5 6 7 7 7 7 6 7 8 8 8 8 8 8 7 7 6 7 6 6 4 3 3 2 2 2 2 1 2 2 1 1 1 1 1 1 1 1 1 1 1 1 1
3 4 5 5 5 5 5 5 6 6 6 6 6 6 6 5 5 5 5 4 3 2 2 1 1 1 1 1 1 1 1 1 1 1 1 1 1 1 1 1 1 1 1
2 2 3 3 4 3 4 4 4 5 5 5 4 4 4 3 3 3 3 2 2 1 1 1 1 1 1 1 1 1 1 1 1 1 1 1 1 1 1 1 1 1 1
1 1 1 2 2 2 2 2 3 3 3 3 3 3 3 2 2 2 2 1 1 1 1 1 1 1 0 0 0 0 0 1 1 1 1 1 1 1 1 1 1 1 1
0 1 1 1 1 1 1 1 2 2 2 2 2 2 2 2 2 1 1 1 1 1 1 1 0 0 0 0 0 0 0 0 0 0 1 1 1 1 1 1 1 1 1
0 0 1 1 1 1 1 1 1 1 1 1 1 1 1 1 1 1 1 1 1 0 0 0 0 0 0 0 0 0 0 0 0 0 0 0 0 0 0 0 1 1 1
0 0 0 0 0 1 1 1 1 1 1 1 1 1 1 1 1 1 1 1 0 0 0 0 0 0 0 0 0 0 0 0 0 0 0 0 0 0 0 0 0 1 1
0 0 0 0 0 0 0 1 1 1 1 1 1 1 1 1 0 0 0 0 0 0 0 0 0 0 0 0 0 0 0 0 0 0 0 0 0 0 0 0 0 0 0
0 0 0 0 0 0 0 0 0 0 0 0 0 0 0 0 0 0 0 0 0 0 0 0 0 0 0 0 0 0 0 0 0 0 0 0 0 0 0 0 0 0 0
0 0 0 0 0 0 0 0 0 0 0 0 0 0 0 0 0 0 0 0 0 0 0 0 0 0 0 0 0 0 0 0 0 0 0 0 0 0 0 0 0 0 0
0 0 0 0 0 0 0 0 0 0 0 0 0 0 0 0 0 0 0 0 0 0 0 0 0 0 0 0 0 0 0 0 0 0 0 0 0 0 0 0 0 0 0
0 0 0 0 0 0 0 0 0 0 0 0 0 0 0 0 0 0 0 0 0 0 0 0 0 0 0 0 0 0 0 0 0 0 0 0 0 0 0 0 0 0 0
0 0 0 0 0 0 0 0 0 0 0 0 0 0 0 0 0 0 0 0 0 0 0 0 0 0 0 0 0 0 0 0 0 0 0 0 0 0 0 0 0 0 0
0 0 0 0 0 0 0 0 0 0 0 0 0 0 0 0 0 0 0 0 0 0 0 0 0 0 0 0 0 0 0 0 0 0 0 0 0 0 0 0 0 0 0
0 0 0 0 0 0 0 0 0 0 0 0 0 0 0 0 0 0 0 0 0 0 0 0 0 0 0 0 0 0 0 0 0 0 0 0 0 0 0 0 0 0 0
0 0 0 0 0 0 0 0 0 0 0 0 0 0 0 0 0 0 0 0 0 0 0 0 0 0 0 0 0 0 0 0 0 0 0 0 0 0 0 0 0 0 0
0 0 0 0 0 0 0 0 0 0 0 0 0 0 0 0 0 0 0 0 0 0 0 0 0 0 0 0 0 0 0 0 0 0 0 0 0 0 0 0 0 0 0
0 0 0 0 0 0 0 0 0 0 0 0 0 0 0 0 0 0 0 0 0 0 0 0 0 0 0 0 0 0 0 0 0 0 0 0 0 0 0 0 0 0 0
Wind_Speed
11 11 12 12 12 10 10 9 9 7 6 5 6 5 4 2 2 1 2 2 3 3 2 2 1 2 2 2 2 2 4 4 4 4 5 6 8 6 4 4 4 4 4
6 8 9 9 10 10 10 9 8 8 8 6 5 3 3 3 3 3 3 3 3 3 4 3 2 2 1 2 3 2 3 4 4 3 3 4 5 2 4 4 5 5 3
7 7 8 8 9 9 10 9 8 8 8 7 5 4 3 3 4 5 4 5 5 4 3 3 2 2 2 2 3 3 5 5 4 3 3 3 3 3 4 4 4 4 3
5 2 2 3 4 7 8 7 7 7 6 6 6 6 6 5 5 4 4 4 5 4 4 3 3 3 2 3 3 4 4 5 5 4 4 5 4 3 4 3 3 4 5
7 7 6 4 2 2 4 6 5 5 5 5 5 5 5 4 3 3 3 4 4 4 4 4 3 3 2 3 4 4 4 4 5 5 4 5 4 5 4 5 4 3 3
10 10 9 8 7 5 4 4 4 4 4 4 3 3 3 3 3 2 2 3 2 3 4 4 3 3 3 4 4 4 5 5 6 5 5 5 4 4 4 5 5 5 4
9 8 8 8 7 6 5 4 5 4 4 3 3 2 1 0 1 1 2 2 2 2 3 3 3 3 3 4 3 4 4 5 6 6 5 5 5 5 5 5 6 5 4
6 6 6 6 5 5 4 4 5 5 4 5 4 3 2 1 1 2 1 1 1 1 2 2 3 4 4 3 3 3 4 5 5 7 6 5 5 5 4 5 5 5 4
5 5 5 5 5 4 4 3 4 5 5 5 5 4 4 4 4 3 3 3 2 2 3 3 3 3 3 3 3 3 4 4 4 5 6 5 4 4 4 4 4 4 4
5 4 4 3 3 3 3 4 4 4 4 4 2 5 4 5 4 4 5 4 3 3 3 3 4 4 4 3 3 3 4 4 4 4 5 5 4 4 4 4 4 4 5
4 4 3 2 2 3 4 4 4 4 4 4 4 4 4 4 4 4 4 4 3 3 3 3 3 4 4 3 3 4 5 5 4 4 5 5 5 4 4 4 4 4 5
4 4 4 3 4 4 4 3 3 3 3 3 3 4 3 3 4 4 4 3 3 3 4 4 4 4 4 4 4 5 5 5 5 5 5 6 6 6 5 4 5 5 5
3 4 5 5 5 5 5 4 3 2 2 2 2 2 3 3 3 3 3 2 3 3 4 4 5 5 5 5 6 6 5 5 5 5 5 5 6 7 6 6 5 5 5
2 3 3 4 4 4 4 4 3 3 2 1 1 2 2 2 2 2 2 3 3 3 4 4 4 4 5 7 8 8 5 4 4 4 4 5 5 6 8 6 6 6 5
3 2 2 2 3 3 3 3 2 3 3 2 2 2 2 2 2 2 2 2 3 4 4 4 4 5 5 7 8 8 6 5 5 4 3 3 3 3 5 5 6 7 5
4 2 1 1 3 4 4 3 2 2 2 2 3 3 2 2 2 1 1 2 2 3 3 3 4 6 6 7 9 8 6 5 5 5 4 2 4 6 5 4 4 6 6
4 3 2 1 2 3 3 3 1 1 1 2 3 3 3 2 2 2 2 3 3 3 4 4 4 5 5 7 10 12 7 4 5 5 6 6 7 8 8 6 3 5 9
5 4 3 3 3 3 2 2 1 1 1 1 2 3 2 2 2 3 4 4 4 4 4 4 5 4 5 8 10 13 5 3 5 6 6 5 6 9 9 4 4 5 6
5 5 5 4 4 3 2 3 2 1 1 1 2 3 2 2 2 2 3 3 3 4 4 4 5 5 5 9 10 11 5 1 3 5 6 6 6 11 13 7 5 4 2
4 4 4 4 3 3 2 2 2 2 2 2 3 3 2 2 2 2 2 2 2 3 3 5 5 6 6 9 12 13 5 3 2 3 5 9 9 11 13 7 6 6 6
4 4 4 3 2 2 1 2 2 3 3 3 3 3 3 2 2 2 2 1 2 3 3 4 5 5 6 7 11 12 6 7 5 3 4 5 10 11 12 8 4 5 6
5 5 3 2 2 1 1 2 3 4 3 3 3 3 2 2 4 3 2 2 2 3 3 4 4 4 4 6 8 10 9 8 5 5 4 4 9 11 11 7 9 12 9
4 3 3 3 3 2 2 4 4 3 3 3 3 3 3 3 3 3 2 2 2 2 3 3 4 3 3 4 7 7 8 9 5 4 5 6 8 9 7 6 11 9 5
4 4 4 4 4 4 4 4 4 4 3 3 3 2 3 3 3 2 2 2 2 3 3 3 3 3 3 4 5 5 5 6 6 6 6 6 6 5 6 7 6 4 4
4 4 3 3 5 5 5 5 4 4 3 3 3 3 4 4 3 3 4 4 4 3 3 3 3 3 3 1 1 3 4 5 6 7 5 3 3 4 4 5 5 5 6
6 5 5 5 6 6 6 5 5 4 4 3 3 3 4 4 4 5 4 4 4 3 3 3 3 3 3 4 2 3 5 6 7 5 4 3 2 3 3 4 4 4 5
Wind_Direction
180 179 178 173 168 160 159 171 185 177 167 171 184 192 203 202 201 207 207 204 205 217 221 251 273 268 276 283 280 285 289 279 268 276 288 284 267 230 201 210 233 232 215
186 166 174 171 168 165 167 175 186 180 178 182 183 184 188 200 215 225 220 218 216 221 229 210 229 242 262 284 286 286 276 277 273 268 290 294 303 303 236 208 203 221 222
165 169 172 177 174 174 179 189 189 185 187 186 181 188 183 208 214 214 215 217 219 215 219 225 231 241 242 249 257 259 261 266 272 249 243 270 287 316 281 232 219 193 205
131 132 157 162 169 174 179 181 185 189 187 185 195 199 205 214 219 215 212 206 213 219 222 231 235 243 251 257 258 256 254 259 268 272 243 237 249 267 301 295 251 203 213
73 51 32 32 61 122 150 166 172 180 183 188 201 210 225 231 231 212 213 203 204 218 227 226 235 243 253 263 267 275 269 261 259 261 263 258 249 236 243 275 294 283 248
53 42 31 27 36 42 70 106 127 137 153 172 185 205 230 242 254 231 217 215 219 218 227 232 238 248 252 253 255 262 266 264 264 266 265 259 254 248 241 258 273 276 269
48 43 39 33 36 43 53 85 104 108 117 128 126 130 118 230 260 272 262 255 263 250 250 251 252 257 260 263 262 266 268 269 268 264 263 262 261 264 263 263 273 282 283
64 53 47 42 36 43 54 80 96 101 99 95 86 76 66 55 59 49 16 8 344 324 311 285 279 279 280 284 284 273 269 268 268 272 271 268 268 268 268 266 276 285 279
81 65 51 41 32 33 39 63 84 89 87 91 93 82 64 53 55 54 50 47 32 20 21 345 330 319 314 311 312 299 290 283 279 284 288 281 277 277 274 269 257 252 268
102 87 71 53 36 32 40 57 69 82 91 96 104 99 85 74 66 60 61 52 40 33 12 360 343 328 317 313 315 308 300 300 290 281 284 291 289 293 290 280 272 250 243
103 92 82 66 49 46 46 58 77 85 85 84 77 83 88 93 88 74 62 52 31 358 7 350 335 321 314 331 327 305 297 300 305 311 315 316 312 308 302 294 281 265 247
81 72 58 43 40 34 35 49 64 78 82 81 87 88 79 72 85 85 68 48 31 1 3 351 348 341 358 352 337 328 337 333 334 341 344 340 336 336 321 305 288 275 257
89 68 50 35 26 25 23 24 37 49 59 74 92 102 99 88 77 78 67 37 24 18 8 5 3 1 3 5 357 346 342 347 353 357 356 354 353 347 336 320 311 295 280
107 80 60 40 18 12 11 6 16 24 13 30 86 92 90 104 105 88 62 38 21 20 14 7 7 11 32 21 5 348 344 3 7 11 13 21 13 357 339 335 339 323 307
153 110 61 27 359 1 355 5 6 9 360 13 52 76 85 96 96 85 63 38 3 21 21 6 21 24 53 27 5 343 357 15 13 15 24 44 19 359 348 355 346 342 336
179 167 148 347 355 350 349 359 9 14 14 36 53 61 59 71 65 47 46 32 24 25 11 12 43 44 40 12 6 1 347 8 16 10 360 45 35 359 339 329 354 8 5
189 192 206 260 301 315 335 332 353 32 44 54 57 56 48 55 47 18 38 39 31 31 19 15 45 77 52 8 1 358 339 9 23 19 10 21 28 14 349 337 348 21 21
196 199 215 237 263 281 288 287 258 174 138 111 91 80 59 53 45 45 45 36 28 28 24 22 33 69 56 14 2 347 330 35 48 39 19 27 26 8 348 350 47 53 32
196 199 214 228 234 250 262 267 243 191 162 112 81 73 60 56 62 69 60 43 39 34 25 32 38 56 50 20 9 356 320 60 83 76 47 30 25 4 1 11 27 41 52
185 207 224 229 233 236 232 241 214 167 137 107 94 77 60 53 61 81 73 58 48 43 33 44 42 48 44 25 17 2 345 5 43 114 97 54 28 11 11 12 18 12 353
201 221 236 229 226 236 225 211 156 123 111 98 91 93 90 97 90 80 81 89 79 65 57 58 54 53 42 29 23 17 12 354 357 29 60 41 13 5 359 1 13 340 313
206 216 219 200 183 189 184 141 117 114 112 104 98 96 85 69 92 97 88 83 95 91 75 71 64 51 40 29 14 12 14 3 6 19 27 17 359 350 339 339 339 340 340
198 216 205 185 171 163 146 133 128 134 130 119 111 109 103 86 83 94 98 90 90 92 86 81 76 59 40 24 8 5 5 3 4 7 3 357 355 345 337 342 338 336 346
191 212 207 176 161 152 139 133 142 147 143 139 130 130 121 115 100 88 91 89 79 86 92 90 89 81 60 34 12 359 359 358 360 351 338 336 352 357 349 347 351 355 360
188 196 182 166 157 155 150 147 145 147 150 154 154 146 129 120 118 99 70 77 81 79 98 102 107 111 100 83 22 358 350 348 356 336 323 338 353 359 360 1 359 5 7
176 183 175 166 158 157 157 154 157 165 169 165 164 158 152 152 148 142 132 60 89 120 105 116 128 127 142 175 236 289 296 306 329 333 308 320 338 340 345 350 353 2 7